Location: Pasadena, ca
(34.1243°N, 118.1037°W)
Time: 21:46:48
(UTC-08:00)

Hubble Space Telescope - Pass Details

Date: 13 November 2017
Orbit: 537 x 541 km, 28.5° (Epoch: 21 November)

Event Time Altitude Azimuth Distance (km) Brightness Sun altitude
Rises 05:27:17 0° 207° (SSW) 2,664 4.2 -11.9°
Reaches altitude 10° 05:31:36 10° 164° (SSE) 1,778 3.8 -11.1°
Maximum altitude 05:32:12 10° 155° (SSE) 1,762 4.0 -11.0°
Drops below altitude 10° 05:32:47 10° 147° (SSE) 1,779 4.2 -10.8°
Sets 05:37:08 0° 104° (ESE) 2,674 6.7 -10.0°
